GW7083 Weather Reports


time (UTC)temp
C
wind
direction
speed
KPH
gust
KPH
rain 1hr
cm
rain 24hr
cm
rain mn
cm
humidity
%
barometer
mb
20260509000447 14 166 0.0 1.6 0.00 0.00 0.00 77 1015.3
20260508235940 14 177 0.0 0.0 0.00 0.00 0.00 76 1015.4
20260508235439 14 178 0.0 0.0 0.00 0.00 0.00 76 1015.0
20260508234935 15 189 0.0 1.6 0.00 0.00 0.00 75 1015.2
20260508234431 15 174 0.0 0.0 0.00 0.00 0.00 71 1015.1
20260508233929 15 149 0.0 0.0 0.00 0.00 0.00 72 1015.6
20260508233428 15 175 0.0 1.6 0.00 0.00 0.00 73 1015.2
20260508232925 15 315 4.8 8.0 0.00 0.00 0.00 68 1015.3
20260508232422 15 287 1.6 1.6 0.00 0.00 0.00 66 1015.1
20260508231919 15 189 1.6 3.2 0.00 0.00 0.00 65 1015.2
20260508231416 16 179 1.6 1.6 0.00 0.00 0.00 70 1015.1
20260508230913 16 122 1.6 1.6 0.00 0.00 0.00 64 1015.0
20260508230410 16 166 0.0 1.6 0.00 0.00 0.00 66 1015.2
20260508225907 16 347 3.2 3.2 0.00 0.00 0.00 64 1015.2
20260508225403 16 206 0.0 4.8 0.00 0.00 0.00 62 1014.8
20260508224901 16 274 4.8 4.8 0.00 0.00 0.00 63 1015.0
20260508224358 16 46 1.6 3.2 0.00 0.00 0.00 62 1015.1
20260508223856 16 296 1.6 3.2 0.00 0.00 0.00 65 1015.1
20260508223353 16 258 1.6 1.6 0.00 0.00 0.00 61 1015.2
20260508222851 16 25 1.6 8.0 0.00 0.00 0.00 63 1015.2
20260508222348 16 277 3.2 4.8 0.00 0.00 0.00 62 1015.1
20260508221844 17 171 0.0 1.6 0.00 0.00 0.00 67 1014.8
20260508221340 17 292 4.8 4.8 0.00 0.00 0.00 60 1014.8
20260508220836 17 165 0.0 3.2 0.00 0.00 0.00 58 1015.0
20260508220333 17 42 4.8 8.0 0.00 0.00 0.00 60 1015.1
20260508215829 16 328 4.8 4.8 0.00 0.00 0.00 60 1015.0
20260508215326 16 263 1.6 4.8 0.00 0.00 0.00 62 1014.8
20260508214823 16 124 0.0 8.0 0.00 0.00 0.00 59 1014.8
20260508214320 17 212 1.6 3.2 0.00 0.00 0.00 59 1015.1
20260508213817 17 176 0.0 3.2 0.00 0.00 0.00 59 1015.2
20260508213314 17 120 0.0 12.9 0.00 0.00 0.00 57 1015.1
20260508212810 17 199 1.6 1.6 0.00 0.00 0.00 58 1014.8
20260508212306 17 282 3.2 8.0 0.00 0.00 0.00 57 1014.6
20260508211802 18 134 6.4 8.0 0.00 0.00 0.00 56 1014.5
20260508211258 17 197 1.6 3.2 0.00 0.00 0.00 56 1015.0
20260508210756 18 222 1.6 3.2 0.00 0.00 0.00 58 1014.5
20260508210252 17 292 3.2 9.7 0.00 0.00 0.00 56 1014.5
20260508205749 18 212 0.0 1.6 0.00 0.00 0.00 52 1014.7
20260508205245 17 227 3.2 4.8 0.00 0.00 0.00 56 1014.8
20260508204742 17 128 3.2 4.8 0.00 0.00 0.00 56 1014.8
20260508204238 17 265 4.8 4.8 0.00 0.00 0.00 57 1014.7
20260508203734 16 20 1.6 3.2 0.00 0.00 0.00 57 1015.2
20260508203231 16 240 3.2 4.8 0.00 0.00 0.00 57 1015.1
20260508202727 17 318 8.0 9.7 0.00 0.00 0.00 56 1015.0
20260508202224 17 190 0.0 3.2 0.00 0.00 0.00 56 1015.1
20260508201721 17 162 1.6 1.6 0.00 0.00 0.00 55 1015.0
20260508201217 17 302 3.2 11.3 0.00 0.00 0.00 55 1015.1
20260508200714 17 205 1.6 9.7 0.00 0.00 0.00 54 1015.1
20260508200211 17 25 4.8 4.8 0.00 0.00 0.00 55 1015.4
20260508195707 17 305 3.2 4.8 0.00 0.00 0.00 56 1015.5
20260508195203 17 211 0.0 3.2 0.00 0.00 0.00 56 1015.4
20260508194700 17 358 4.8 4.8 0.00 0.00 0.00 58 1015.6
20260508194157 16 334 3.2 4.8 0.00 0.00 0.00 61 1015.6
20260508193654 17 285 3.2 4.8 0.00 0.00 0.00 54 1015.7
20260508193151 17 339 1.6 3.2 0.00 0.00 0.00 55 1016.0
20260508192647 18 145 3.2 4.8 0.00 0.00 0.00 52 1016.3
20260508192145 17 179 6.4 9.7 0.00 0.00 0.00 53 1016.0
20260508191642 17 357 3.2 8.0 0.00 0.00 0.00 56 1016.1
20260508191138 17 74 1.6 8.0 0.00 0.00 0.00 56 1016.0
20260508190635 17 284 3.2 3.2 0.00 0.00 0.00 56 1016.3
20260508190132 17 275 1.6 8.0 0.00 0.00 0.00 57 1016.3
20260508185629 17 353 3.2 4.8 0.00 0.00 0.00 57 1016.5
20260508185126 17 162 1.6 8.0 0.00 0.00 0.00 55 1016.3
20260508184624 17 231 3.2 8.0 0.00 0.00 0.00 56 1016.5
20260508184120 17 143 3.2 3.2 0.00 0.00 0.00 54 1016.4
20260508183617 18 291 11.3 11.3 0.00 0.00 0.00 52 1016.6
20260508183113 17 197 1.6 9.7 0.00 0.00 0.00 54 1016.4
20260508182609 16 166 0.0 4.8 0.00 0.00 0.00 55 1016.5
20260508182106 17 334 9.7 12.9 0.00 0.00 0.00 55 1016.5
20260508181601 17 330 14.5 17.7 0.00 0.00 0.00 53 1016.6
20260508181059 18 318 11.3 14.5 0.00 0.00 0.00 51 1016.7
20260508180555 17 129 1.6 3.2 0.00 0.00 0.00 56 1016.6
20260508180052 16 287 3.2 8.0 0.00 0.00 0.00 54 1016.8
20260508175548 16 291 4.8 11.3 0.00 0.00 0.00 54 1016.9
20260508175046 18 174 1.6 4.8 0.00 0.00 0.00 46 1016.8
20260508174543 17 280 8.0 11.3 0.00 0.00 0.00 45 1017.1
20260508174040 18 344 1.6 9.7 0.00 0.00 0.00 48 1017.0
20260508173537 18 216 1.6 3.2 0.00 0.00 0.00 51 1016.9
20260508173033 17 175 0.0 3.2 0.00 0.00 0.00 54 1016.9
20260508172530 17 228 3.2 8.0 0.00 0.00 0.00 52 1016.9
20260508172027 17 175 1.6 4.8 0.00 0.00 0.00 55 1017.0
20260508171523 16 275 4.8 8.0 0.00 0.00 0.00 53 1017.2
20260508171020 16 279 0.0 3.2 0.00 0.00 0.00 54 1017.1
20260508170517 16 160 1.6 4.8 0.00 0.00 0.00 50 1017.3
20260508170015 18 267 1.6 3.2 0.00 0.00 0.00 47 1017.4
20260508165512 17 157 1.6 3.2 0.00 0.00 0.00 47 1017.7
20260508165008 17 198 0.0 1.6 0.00 0.00 0.00 49 1017.7
20260508164505 16 339 8.0 9.7 0.00 0.00 0.00 50 1017.9
20260508164001 17 212 3.2 4.8 0.00 0.00 0.00 48 1017.8
20260508163459 16 317 3.2 8.0 0.00 0.00 0.00 47 1018.0
20260508162955 16 163 1.6 9.7 0.00 0.00 0.00 52 1018.0
20260508162453 16 162 0.0 4.8 0.00 0.00 0.00 49 1018.0
20260508161949 16 26 4.8 4.8 0.00 0.00 0.00 53 1018.0
20260508161446 15 118 3.2 4.8 0.00 0.00 0.00 52 1018.0
20260508160943 15 145 0.0 9.7 0.00 0.00 0.00 54 1018.2
20260508160443 15 192 1.6 3.2 0.00 0.00 0.00 58 1018.1
20260508155938 15 137 1.6 1.6 0.00 0.00 0.00 60 1018.3
20260508155436 15 218 1.6 3.2 0.00 0.00 0.00 50 1018.3
20260508154932 16 289 1.6 1.6 0.00 0.00 0.00 50 1018.3
20260508154430 16 308 3.2 3.2 0.00 0.00 0.00 56 1018.3
20260508153926 15 175 0.0 8.0 0.00 0.00 0.00 58 1018.6
20260508153423 15 254 3.2 4.8 0.00 0.00 0.00 59 1018.6
20260508152919 15 169 3.2 4.8 0.00 0.00 0.00 59 1018.6
20260508152416 15 102 3.2 4.8 0.00 0.00 0.00 57 1018.6
20260508151913 14 175 3.2 4.8 0.00 0.00 0.00 61 1018.6
20260508151410 15 151 0.0 3.2 0.00 0.00 0.00 56 1018.7
20260508150906 14 183 0.0 4.8 0.00 0.00 0.00 60 1018.5
20260508150403 14 164 0.0 1.6 0.00 0.00 0.00 59 1018.5
20260508145859 15 160 1.6 3.2 0.00 0.00 0.00 61 1018.4
20260508145355 14 0 3.2 4.8 0.00 0.00 0.00 62 1018.5
20260508144852 15 358 4.8 8.0 0.00 0.00 0.00 60 1018.6
20260508144350 15 173 1.6 3.2 0.00 0.00 0.00 61 1018.8
20260508143847 14 236 3.2 8.0 0.00 0.00 0.00 63 1018.7
20260508143344 13 213 3.2 8.0 0.00 0.00 0.00 62 1018.5
20260508142841 13 174 1.6 3.2 0.00 0.00 0.00 63 1018.6
20260508142338 13 268 3.2 4.8 0.00 0.00 0.00 65 1018.5
20260508141834 13 185 1.6 4.8 0.00 0.00 0.00 66 1018.7
20260508141331 12 98 4.8 8.0 0.00 0.00 0.00 66 1019.0
20260508140829 13 161 3.2 3.2 0.00 0.00 0.00 67 1019.0
20260508140325 12 173 3.2 3.2 0.00 0.00 0.00 67 1018.8
20260508135821 12 175 0.0 3.2 0.00 0.00 0.00 70 1019.1
20260508135318 11 230 3.2 3.2 0.00 0.00 0.00 74 1018.8
20260508134814 11 325 3.2 8.0 0.00 0.00 0.00 76 1019.0
20260508134311 11 296 3.2 4.8 0.00 0.00 0.00 75 1018.8
20260508133807 11 180 1.6 3.2 0.00 0.00 0.00 76 1018.8
20260508133305 10 254 3.2 8.0 0.00 0.00 0.00 77 1018.8
20260508132803 10 189 3.2 4.8 0.00 0.00 0.00 79 1019.1
20260508132300 10 173 1.6 4.8 0.00 0.00 0.00 80 1019.0
20260508131755 10 119 1.6 4.8 0.00 0.00 0.00 81 1019.1
20260508131252 9 253 1.6 1.6 0.00 0.00 0.00 83 1018.8
20260508130749 9 189 1.6 4.8 0.00 0.00 0.00 82 1018.7
20260508130246 9 265 3.2 4.8 0.00 0.00 0.00 82 1018.7
20260508125741 8 185 0.0 3.2 0.00 0.00 0.00 84 1018.5
20260508125238 8 355 6.4 8.0 0.00 0.00 0.00 85 1018.6
20260508124737 8 160 1.6 3.2 0.00 0.00 0.00 86 1018.8
20260508124233 8 239 1.6 3.2 0.00 0.00 0.00 88 1018.8
20260508123731 8 190 1.6 3.2 0.00 0.00 0.00 89 1018.6
20260508123229 7 162 1.6 1.6 0.00 0.00 0.00 91 1018.6
20260508122725 7 167 1.6 3.2 0.00 0.00 0.00 90 1018.4
20260508122222 7 160 0.0 1.6 0.00 0.00 0.00 91 1018.4
20260508121720 7 148 1.6 1.6 0.00 0.00 0.00 91 1018.5
20260508121218 7 154 1.6 1.6 0.00 0.00 0.00 91 1018.3
20260508120715 7 150 1.6 3.2 0.00 0.00 0.00 91 1018.3
20260508120213 7 175 0.0 0.0 0.00 0.00 0.00 91 1018.4
20260508115710 7 176 0.0 1.6 0.00 0.00 0.00 92 1018.1
20260508115207 7 280 3.2 3.2 0.00 0.00 0.00 92 1018.3
20260508114704 7 259 1.6 3.2 0.00 0.00 0.00 92 1018.2
20260508114201 7 155 0.0 1.6 0.00 0.00 0.00 92 1018.2
20260508113657 7 191 1.6 1.6 0.00 0.00 0.00 92 1018.0
20260508113156 7 195 0.0 1.6 0.00 0.00 0.00 92 1017.9
20260508112652 7 173 0.0 1.6 0.00 0.00 0.00 92 1017.7
20260508112149 7 170 0.0 1.6 0.00 0.00 0.00 92 1017.8
20260508111645 7 232 1.6 1.6 0.00 0.00 0.00 92 1017.8
20260508111143 7 205 0.0 1.6 0.00 0.00 0.00 92 1017.7
20260508110640 7 238 1.6 1.6 0.00 0.00 0.00 92 1017.4
20260508110137 7 233 3.2 3.2 0.00 0.00 0.00 92 1017.2
20260508105631 7 171 0.0 1.6 0.00 0.00 0.00 92 1017.3
20260508105128 7 197 1.6 1.6 0.00 0.00 0.00 92 1017.3
20260508104626 7 185 0.0 0.0 0.00 0.00 0.00 92 1016.9
20260508104122 7 185 1.6 1.6 0.00 0.00 0.00 92 1017.2
20260508103620 7 177 0.0 0.0 0.00 0.00 0.00 92 1017.1
20260508103117 6 169 0.0 0.0 0.00 0.00 0.00 92 1017.2
20260508102614 6 184 0.0 0.0 0.00 0.00 0.00 92 1017.0
20260508102112 6 173 0.0 0.0 0.00 0.00 0.00 92 1016.7
20260508101609 6 176 0.0 0.0 0.00 0.00 0.00 92 1016.9
20260508101107 6 173 0.0 0.0 0.00 0.00 0.00 92 1016.8
20260508100604 6 166 0.0 0.0 0.00 0.00 0.00 92 1016.5
20260508095558 6 168 0.0 1.6 0.00 0.00 0.00 92 1016.6
20260508095055 6 173 0.0 0.0 0.00 0.00 0.00 92 1016.6
20260508094552 6 169 0.0 0.0 0.00 0.00 0.00 92 1016.5
20260508094049 6 180 0.0 0.0 0.00 0.00 0.00 92 1016.4
20260508093546 6 162 0.0 0.0 0.00 0.00 0.00 92 1016.5
20260508093044 6 155 0.0 1.6 0.00 0.00 0.00 92 1016.7
20260508092541 5 156 0.0 0.0 0.00 0.00 0.00 92 1016.4
20260508092040 5 159 0.0 0.0 0.00 0.00 0.00 92 1016.5
20260508091536 5 173 0.0 0.0 0.00 0.00 0.00 92 1016.5
20260508091033 5 166 0.0 1.6 0.00 0.00 0.00 92 1016.3
20260508090531 5 161 0.0 0.0 0.00 0.00 0.00 92 1016.4
20260508090027 5 163 0.0 1.6 0.00 0.00 0.00 92 1016.4
20260508085524 5 174 0.0 0.0 0.00 0.00 0.00 92 1016.6
20260508085021 5 144 1.6 1.6 0.00 0.00 0.00 92 1016.4
20260508084518 5 175 0.0 0.0 0.00 0.00 0.00 92 1016.1
20260508084016 5 175 0.0 0.0 0.00 0.00 0.00 92 1016.3
20260508083512 6 160 0.0 1.6 0.00 0.00 0.00 92 1015.9
20260508083009 6 173 0.0 0.0 0.00 0.00 0.00 92 1015.9
20260508082505 6 178 0.0 1.6 0.00 0.00 0.00 92 1015.9
20260508082003 6 245 1.6 1.6 0.00 0.00 0.00 92 1016.3
20260508081500 6 153 3.2 3.2 0.00 0.00 0.00 92 1016.0
20260508080955 6 180 0.0 1.6 0.00 0.00 0.00 92 1015.9
20260508080454 6 166 0.0 0.0 0.00 0.00 0.00 92 1016.0
20260508075950 6 154 0.0 1.6 0.00 0.00 0.00 92 1015.8
20260508075447 6 181 0.0 1.6 0.00 0.00 0.00 92 1015.7
20260508074945 6 160 0.0 0.0 0.00 0.00 0.00 92 1015.7
20260508074443 6 155 0.0 1.6 0.00 0.00 0.00 92 1015.9
20260508073939 6 160 0.0 0.0 0.00 0.00 0.00 92 1015.8
20260508073437 6 144 0.0 0.0 0.00 0.00 0.00 92 1015.6
20260508072934 6 264 1.6 3.2 0.00 0.00 0.00 92 1015.4
20260508072430 6 168 1.6 1.6 0.00 0.00 0.00 92 1015.6
20260508071927 6 136 0.0 1.6 0.00 0.00 0.00 92 1015.4
20260508071425 7 149 0.0 0.0 0.00 0.00 0.00 92 1015.5
20260508070922 7 143 3.2 3.2 0.00 0.00 0.00 92 1015.5
20260508070420 7 128 1.6 3.2 0.00 0.00 0.00 91 1015.4
20260508065918 7 169 0.0 0.0 0.00 0.00 0.00 90 1015.4
20260508065416 7 154 0.0 3.2 0.00 0.00 0.00 90 1015.4
20260508064914 7 156 0.0 1.6 0.00 0.00 0.00 89 1015.0
20260508064411 7 142 1.6 3.2 0.00 0.00 0.00 88 1015.3
20260508063909 8 194 0.0 1.6 0.00 0.00 0.00 87 1015.2
20260508063406 8 151 1.6 1.6 0.00 0.00 0.00 86 1015.4
20260508062903 8 132 1.6 3.2 0.00 0.00 0.00 85 1015.5
20260508062401 9 147 1.6 3.2 0.00 0.00 0.00 82 1015.4
20260508061857 10 306 9.7 9.7 0.00 0.00 0.00 81 1015.1
20260508061355 10 174 1.6 3.2 0.00 0.00 0.00 81 1015.1
20260508060851 10 212 1.6 4.8 0.00 0.00 0.00 81 1015.1
20260508060349 9 193 6.4 8.0 0.00 0.00 0.00 84 1015.0
20260508055844 10 251 4.8 8.0 0.00 0.00 0.00 83 1015.2
20260508055342 10 262 3.2 3.2 0.00 0.00 0.00 82 1015.4
20260508054838 10 317 1.6 3.2 0.00 0.00 0.00 79 1015.3
20260508054335 10 181 1.6 4.8 0.00 0.00 0.00 76 1015.4
20260508053832 11 214 1.6 4.8 0.00 0.00 0.00 75 1015.3
20260508053330 10 130 9.7 14.5 0.00 0.00 0.00 72 1015.2
20260508052827 11 195 1.6 3.2 0.00 0.00 0.00 73 1015.3
20260508052324 11 181 4.8 4.8 0.00 0.00 0.00 76 1015.4
20260508051820 10 152 3.2 9.7 0.00 0.00 0.00 76 1015.5
20260508051316 10 265 8.0 11.3 0.00 0.00 0.00 79 1015.1
20260508050812 9 251 3.2 3.2 0.00 0.00 0.00 85 1015.3
20260508050310 10 92 4.8 4.8 0.00 0.00 0.00 84 1015.3
20260508045805 10 295 1.6 1.6 0.00 0.00 0.00 80 1015.2
20260508045306 10 189 3.2 8.0 0.00 0.00 0.00 76 1014.8
20260508044800 10 182 1.6 11.3 0.00 0.00 0.00 78 1015.4
20260508044256 10 146 1.6 3.2 0.00 0.00 0.00 83 1015.2
20260508043753 10 327 1.6 1.6 0.00 0.00 0.00 81 1015.2
20260508043250 10 146 0.0 4.8 0.00 0.00 0.00 79 1015.2
20260508042747 10 185 4.8 4.8 0.00 0.00 0.00 80 1015.2
20260508042244 10 156 1.6 3.2 0.00 0.00 0.00 79 1015.1
20260508041741 10 182 0.0 4.8 0.00 0.00 0.00 79 1015.2
20260508041238 10 148 3.2 4.8 0.00 0.00 0.00 82 1015.0
20260508040734 10 143 1.6 3.2 0.00 0.00 0.00 80 1015.0
20260508040231 10 164 1.6 3.2 0.00 0.00 0.00 79 1015.1
20260508035729 10 141 1.6 3.2 0.00 0.86 0.86 80 1015.2
20260508035226 10 195 4.8 4.8 0.00 0.86 0.86 78 1015.1
20260508034722 10 181 0.0 4.8 0.00 0.86 0.86 81 1014.7
20260508034220 11 159 0.0 3.2 0.00 0.86 0.86 78 1015.2
20260508033717 11 133 8.0 11.3 0.00 0.86 0.86 76 1015.1
20260508033215 11 107 3.2 11.3 0.00 0.86 0.86 76 1015.2
20260508032712 11 242 3.2 3.2 0.00 0.86 0.86 78 1015.3
20260508032209 11 211 1.6 4.8 0.00 0.86 0.86 79 1015.0
20260508031706 11 92 3.2 8.0 0.00 0.86 0.86 76 1015.0
20260508031202 11 147 3.2 3.2 0.00 0.86 0.86 79 1014.8
20260508030659 11 124 1.6 4.8 0.00 0.86 0.86 79 1014.8
20260508030157 11 165 4.8 12.9 0.00 0.86 0.86 77 1015.0
20260508025653 11 104 3.2 8.0 0.00 0.86 0.86 76 1014.8
20260508025150 11 138 6.4 11.3 0.00 0.86 0.86 77 1014.7
20260508024645 11 160 8.0 11.3 0.00 0.86 0.86 76 1014.8
20260508024143 11 124 4.8 9.7 0.00 0.86 0.86 78 1014.6
20260508023639 11 255 1.6 3.2 0.00 0.86 0.86 77 1014.5
20260508023137 11 138 3.2 25.7 0.00 0.86 0.86 76 1014.1
20260508022632 11 172 0.0 8.0 0.00 0.86 0.86 77 1014.3
20260508022130 11 96 8.0 16.1 0.00 0.86 0.86 75 1014.3
20260508021626 11 98 1.6 16.1 0.00 0.86 0.86 75 1014.1
20260508021121 11 203 4.8 11.3 0.00 0.86 0.86 75 1013.9
20260508020619 11 179 8.0 9.7 0.00 0.86 0.86 76 1014.2
20260508020117 11 179 1.6 11.3 0.00 0.86 0.86 75 1014.2
20260508015614 11 289 4.8 14.5 0.00 0.86 0.86 76 1013.9
20260508015111 11 140 4.8 14.5 0.00 0.86 0.86 74 1014.2
20260508014607 11 104 3.2 4.8 0.00 0.86 0.86 75 1014.0
20260508014104 11 217 14.5 16.1 0.00 0.86 0.86 78 1013.9
20260508013600 11 195 8.0 11.3 0.00 0.86 0.86 76 1013.6
20260508013057 11 213 1.6 11.3 0.00 0.86 0.86 75 1013.8
20260508012554 11 186 1.6 11.3 0.00 0.86 0.86 76 1013.6
20260508012051 11 237 3.2 9.7 0.00 0.86 0.86 75 1013.6
20260508011550 11 323 8.0 9.7 0.00 0.86 0.86 72 1013.1
20260508011047 11 193 6.4 9.7 0.00 0.86 0.86 73 1013.1
20260508010543 11 272 3.2 14.5 0.00 0.86 0.86 73 1013.3
20260508010041 11 300 4.8 14.5 0.00 0.86 0.86 72 1013.6
20260508005537 11 208 1.6 11.3 0.00 0.86 0.86 76 1013.6
20260508005034 11 200 4.8 8.0 0.00 0.86 0.86 75 1013.4
20260508004530 11 170 0.0 8.0 0.00 0.86 0.86 73 1013.1
20260508004027 11 191 1.6 12.9 0.00 0.86 0.86 72 1013.2
20260508003523 12 110 8.0 33.8 0.00 0.86 0.86 69 1013.3
20260508003021 11 203 9.7 11.3 0.00 0.86 0.86 73 1013.6
20260508002517 11 176 14.5 17.7 0.00 0.86 0.86 73 1013.1
20260508002015 11 193 6.4 14.5 0.00 0.86 0.86 70 1013.1
20260508001510 11 220 3.2 11.3 0.00 0.86 0.86 72 1013.1
20260508001007 12 87 1.6 8.0 0.00 0.86 0.86 71 1012.9